EDT,Max TemperatureF,Mean TemperatureF,Min TemperatureF,Max Dew PointF,MeanDew PointF,Min DewpointF,Max Humidity, Mean Humidity, Min Humidity, Max Sea Level PressureIn, Mean Sea Level PressureIn, Min Sea Level PressureIn, Max VisibilityMiles, Mean VisibilityMiles, Min VisibilityMiles, Max Wind SpeedMPH, Mean Wind SpeedMPH, Max Gust SpeedMPH,PrecipitationIn, CloudCover, Events, WindDirDegrees
2012-9-1,93,82,71,75,73,70,100,78,46,30.18,30.13,30.06,10,10,7,14,2,10,0.00,0,Thunderstorm,230
2012-9-2,93,82,71,77,73,70,100,82,46,30.09,30.03,29.96,10,10,7,10,2,,0.03,1,Thunderstorm,216
2012-9-3,89,81,73,75,73,70,100,86,55,30.05,30.01,29.96,10,10,7,17,3,31,0.00,3,Rain-Thunderstorm,174
2012-9-4,87,80,73,77,73,72,100,90,62,30.02,29.99,29.93,10,7,1,12,6,,2.69,7,Rain-Thunderstorm,167
2012-9-5,86,78,71,75,73,70,100,89,58,30.00,29.95,29.91,10,7,4,9,2,,0.00,5,,201
2012-9-6,87,79,71,77,73,72,100,88,58,29.99,29.95,29.92,10,9,4,8,3,9,0.11,5,Rain-Thunderstorm,225
2012-9-7,87,78,69,75,71,68,100,86,52,30.02,29.95,29.89,10,7,0,6,2,,0.02,4,Fog-Thunderstorm,72
2012-9-8,89,79,69,75,71,66,100,86,55,29.89,29.83,29.75,10,7,0,14,3,23,0.00,5,Fog-Rain-Thunderstorm,197
2012-9-9,80,71,60,66,59,52,94,70,39,30.03,29.94,29.86,10,10,7,16,7,21,0.00,4,Thunderstorm,3
2012-9-10,80,68,57,61,56,52,94,66,37,30.17,30.10,30.03,10,9,7,9,4,,0.00,1,,11
2012-9-11,78,70,62,63,60,55,100,78,47,30.32,30.26,30.17,10,8,5,8,1,,0.00,5,,105
2012-9-12,80,70,59,61,59,55,100,75,44,30.38,30.32,30.27,10,8,5,9,1,,0.00,2,,77
2012-9-13,78,68,57,63,59,55,94,75,47,30.36,30.31,30.26,10,8,5,8,2,,0.00,2,,35
2012-9-14,82,70,59,66,60,55,94,74,39,30.29,30.23,30.18,10,8,5,7,3,,0.00,4,,15
2012-9-15,86,74,62,64,63,59,100,74,40,30.22,30.16,30.11,10,8,7,12,2,17,0.00,1,,25
2012-9-16,80,72,64,72,67,64,100,86,61,30.16,30.12,30.07,10,7,5,10,2,,0.00,4,Rain,55
2012-9-17,82,75,68,72,69,68,100,91,66,30.13,30.03,29.92,10,6,2,18,4,28,0.75,7,Rain,107
2012-9-18,77,72,68,75,72,68,100,96,78,29.91,29.80,29.74,10,9,2,13,8,23,0.63,7,Rain-Thunderstorm,192
2012-9-19,77,68,60,68,61,55,100,79,47,30.15,30.03,29.87,10,9,7,14,6,24,0.00,2,,40
2012-9-20,78,66,55,63,59,55,100,79,50,30.19,30.13,30.07,10,8,5,8,3,,0.00,0,,51
2012-9-21,82,70,57,66,62,57,100,80,51,30.12,30.07,30.01,10,8,4,7,2,,0.00,2,,196
2012-9-22,86,74,62,68,64,61,100,74,43,30.04,30.00,29.94,10,9,7,12,4,17,0.00,1,,209
2012-9-23,78,68,59,63,50,43,77,53,28,30.14,30.09,30.02,10,9,7,10,5,17,0.00,1,,344
2012-9-24,73,62,51,52,46,41,82,59,33,30.25,30.19,30.14,10,8,7,16,6,22,0.00,0,,35
2012-9-25,78,64,50,59,54,50,100,74,44,30.26,30.22,30.19,10,8,5,8,2,,0.00,1,Thunderstorm,165
2012-9-26,82,68,55,61,58,55,100,74,39,30.26,30.21,30.17,10,8,5,9,3,,0.00,0,Thunderstorm,187
2012-9-27,84,70,57,64,61,55,100,74,42,30.24,30.18,30.12,10,8,0,6,2,,0.00,1,Rain,226
2012-9-28,86,73,60,68,63,61,100,76,43,30.14,30.08,30.00,10,9,5,9,2,,0.00,0,Thunderstorm,250
2012-9-29,75,70,64,70,66,63,100,95,78,30.03,29.96,29.88,10,7,2,9,1,9,1.13,5,Rain-Thunderstorm,26
2012-9-30,73,66,60,66,61,55,100,84,53,29.95,29.91,29.86,10,7,1,12,5,,0.01,5,Rain,64